Showing default

COSMOS 2254, 22689

Orbit data source: Space-Track

COSMOS 2254, 22689 is a payload satellite owned by VKS (CIS) in LEO that was launched on Thu, 24 Jun 1993 UTC via a TSIKLON-3 launch vehicle from the Plesetsk Missile And Space Complex (PKMTR). Payloads include a variety of satellites, spacecraft, and rockets equipped with specific instruments for various scientific and technological missions. These include communications satellites like Starlink; space stations such as the ISS; scientific satellites like the Hubble; Earth observation satellites from companies like Planet Labs, Umbra, and HawkEye 360; GPS; miniature CubeSats for education and research; and military/defense satellites.

Loading next visibility...
COSMOS 2254 details
Identifier
22689, 1993-038C
Orbit
LEO
Last TLE update7 hours ago
Origin
Flag of CISVKS (CIS)
ManufacturerNPO PM
MissionDefense Communications
Bus & MotorSTRELA-3, Unknown motor
Mass225 kg wet, 225 kg dry
Launch date (UTC)
1993-06-24 (32 years ago)
Launch vehicle
TSIKLON-3
Launch site
Plesetsk Missile And Space Complex (PKMTR)
Object type
Payload
Rocket body
Debris
Shape & HBRCyl, 1.6 m
Radar Cross Section1.257 m², Large (>1 m²)

Expand to show TLE details & history

TLE from 7 hours ago
0 COSMOS 2254
1 22689U 93038C   25036.07458997  .00000050  00000-0  21278-3 0  9993
2 22689  82.5844 162.6918 0011591   6.0514 168.2287 12.64896956459936
Epoch: 2025-02-05T01:47Z
Definitive object data (Epoch: 2025-02-05T01:47:24.573Z)
Latitude5.56859°
Longitude179.64517°
Altitude1,413.814 km
Speed7.15 km/s
True Right ascension22h 47m 52s
True Declination5° 32' 18"
Sunlit
Object was in daylight at TLE epoch
Visualization TLE readout
Latitude26.17517°
Longitude3.83661°
Altitude1,397.414 km
Speed7.167 km/s
Apparent Right ascension12h 03m 13s
Apparent Declination-16° 45' 15"
Sunlit
Object is in full shadow
Visualization observer readout
Local Sidereal Time10:38:43
Azimuth156.517° SSE
Elevation30.007°
Doppler factor1
Orbital elements
Apogee altitude1,409.13 km
Perigee altitude1,391.098 km
Semi-major axis7,778.251 km
Eccentricity0.0011591
Inclination82.5844°
RAAN162.6918°
Arg. of periapsis6.0514°
True anomaly168.25576°
Mean anomaly168.2287°
Eccentric anomaly168.24223°
Mean motion3.16388 °/min
BSTAR0.00021278
Orbital period113.78 mins
Loading maneuver chart data...
Loading historical data...
Loading historical data...
Loading historical data...
Loading historical data...
Loading historical data...
Loading historical data...
Loading historical data...

COSMOS 2254 Visibility forecast

Observer location: undefined°, undefined

Span
Click to sort rows by Start time (UTC) header in descending order
Start Az.
Max El. time (UTC)
Max El. Az.
Max El.
End time (UTC)
End Az.
12 mins2025-02-05 08:36:12.102Z156.638° SSE2025-02-05 08:40:12.102Z99.272° ESE40.401°2025-02-05 08:48:12.102Z15.714° NNE
12 mins2025-02-05 10:30:12.102Z240.499° WSW2025-02-05 10:35:12.102Z284.71° WNW25.363°2025-02-05 10:42:12.102Z345.812° N
10 mins2025-02-05 18:35:12.102Z25.773° NE2025-02-05 18:40:12.102Z69.005° E21.152°2025-02-05 18:45:12.102Z110.294° ESE
14 mins2025-02-05 20:29:12.102Z346.771° N2025-02-05 20:35:12.102Z284.261° WNW43.648°2025-02-05 20:43:12.102Z184.275° SSW
4 mins2025-02-05 22:27:12.102Z296.409° NW2025-02-05 22:29:12.102Z281.627° WNW11.619°2025-02-05 22:31:12.102Z267.252° W
10 mins2025-02-06 07:23:12.102Z117.132° SE2025-02-06 07:27:12.102Z83.961° E19.84°2025-02-06 07:33:12.102Z36.23° NE
|